Regional Weather Roundup
Issued by NWS

Home | Current Version | Previous Version | Text Only | Print | Product List | Glossary Off
Versions: 1 2 3 4 5 6 7 8 9 10 11 12 13 14 15 16 17 18 19 20 21 22 23 24 25 26 27 28 29 30 31 32 33 34 35 36 37 38 39 40 41 42 43 44 45 46 47 48 49 50

000
ASUS43 KMPX 260410
RWRMN
WEATHER ROUNDUP FOR MINNESOTA
NATIONAL WEATHER SERVICE TWIN CITIES/CHANHASSEN MN
1100 PM CDT TUE JUL 25 2017


NOTE: "FAIR" INDICATES FEW OR NO CLOUDS BELOW 12,000 FEET WITH NO
SIGNIFICANT WEATHER AND/OR OBSTRUCTIONS TO VISIBILITY. N/A MEANS
CURRENT SKY AND/OR WEATHER CONDITIONS ARE NOT AVAILABLE.

MNZ060>063-068>070-260500-
   Twin Cities Metro

CITY           SKY/WX    TMP DP  RH WIND       PRES   REMARKS
TWIN CITIES    CLOUDY    79  72  79 SW9       29.94R
ST PAUL        CLOUDY    77  74  90 S7        29.94R
CRYSTAL        CLOUDY    78  71  79 NW9       29.94R
BLAINE         CLOUDY    79  72  78 W5        29.95R
LAKEVILLE      CLOUDY    73  73 100 S3        29.95R
SOUTH ST PAUL  MOCLDY    77  73  85 SW9       29.94R
LAKE ELMO      FAIR      75  72  88 S6        29.96R
$$
MNZ001>005-007-008-013>017-022>024-027-028-260500-
   Northwest Minnesota

CITY           SKY/WX    TMP DP  RH WIND       PRES   REMARKS
BEMIDJI        CLOUDY    69  67  93 W6        29.95S
HALLOCK        CLOUDY    63  59  88 W3        29.93R
ROSEAU         CLEAR     66  59  77 W6        29.92S
WARROAD        CLEAR     64  61  88 W7        29.92S
THIEF RVR FALL CLOUDY    66  58  75 W5        29.97R
CROOKSTON      CLOUDY    66  61  82 W3        29.97R
FOSSTON        CLOUDY    66  59  77 NW9       29.97R
DETROIT LAKES  PTCLDY    70  68  94 W6        30.01R
MOORHEAD       MOCLDY    70  66  88 CALM      29.99R
PARK RAPIDS    PTCLDY    67  64  90 W6        29.97R
MAHNOMEN       FAIR      67  64  87 W6        29.97R
$$
MNZ006-009>011-018-025>026-260500-
   North Central Minnesota

CITY           SKY/WX    TMP DP  RH WIND       PRES   REMARKS
BAUDETTE       PTCLDY    65  58  78 W7        29.91R
FLAG ISLAND    CLEAR     68  57  68 W8        29.88S
INTL FALLS     MOCLDY    64  60  87 W5        29.89R
WASKISH        CLOUDY    70  61  73 W7        29.93R
BIG FORK       PTCLDY    70  66  88 SW5       29.92S
LONGVILLE      PTCLDY    70  68  94 W5        29.95S
GRAND RAPIDS   PTCLDY    69  67  93 S5        29.96S
CRANE LAKE     CLEAR     66  66 100 S5        29.90S
ORR            PTCLDY    66  63  88 CALM      29.88S
COOK             N/A     68  66  94 SW5       29.90F
WALKER         FAIR      69  67  92 SW8       29.96R
$$
MNZ012-019>021-037-260500-
   Northeast Minnesota

CITY           SKY/WX    TMP DP  RH WIND       PRES   REMARKS
DULUTH         CLOUDY    68  67  96 SW3       29.94S
ELY            CLOUDY    68  66  94 SW8       29.91F
HIBBING        MOCLDY    66  66 100 CALM      29.92F
EVELETH        CLOUDY    66  63  90 SW5       29.93F
DULUTH HARBOR  MOCLDY    66  63  88 CALM      29.93R
TWO HARBORS    CLOUDY    70  64  83 SW3       29.90F
GRAND MARAIS     N/A     61  60  97 CALM      29.89F
G MARAIS ARPRT CLOUDY    64  61  88 SW7       29.93F FOG
$$
MNZ029>031-032-039>041-046>048-054>057-064-260500-
   West Central Minnesota

CITY           SKY/WX    TMP DP  RH WIND       PRES   REMARKS
FERGUS FALLS   CLOUDY    72  72 100 SW3       29.99R
WHEATON        CLOUDY    73  70  88 SE8       30.00R
MORRIS         CLOUDY    73  72  94 W3        29.97F
ALEXANDRIA     CLOUDY    70  69  97 SW6       30.01R
ELBOW LAKE     FAIR      74  71  91 W5        29.98F
WADENA         PTCLDY    70  70 100 SW6       30.00R
GLENWOOD       PTCLDY    72  70  94 W6        30.01R
APPLETON       CLOUDY    73  68  83 W3        29.96F
BENSON         CLOUDY    73  68  83 CALM      29.98F
ORTONVILLE     CLOUDY    73  66  78 MISG      29.97F
MADISON        CLOUDY    75  70  83 N5        29.95F
WILLMAR        FAIR      75  68  78 CALM      29.98F
$$
MNZ033>034-036-042>043-049>051-058-059-260500-
   Central Minnesota

CITY           SKY/WX    TMP DP  RH WIND       PRES   REMARKS
ST CLOUD       LGT RAIN  72  72 100 SW5       29.99R
SAUK CENTRE    FAIR      73  71  95 W7        29.99R
PAYNESVILLE    MOCLDY    73  69  89 W3        29.99S
AITKIN         PTCLDY    68  66  94 CALM      29.95R
PINE RIVER     PTCLDY    64  64 100 CALM      30.00R FOG
BRAINERD       CLOUDY    72  70  93 SW9       29.98R
STAPLES        CLOUDY    72  70  94 SW5       29.99R
LONG PRAIRIE   CLOUDY    70  68  94 W8        30.00R
LITTLE FALLS   CLOUDY    66  64  94 NW7       29.98S
LITCHFIELD     PTCLDY    75  72  88 CALM      29.99S
BUFFALO        LGT RAIN  74  65  71 W6        30.00R
MAPLE LAKE     DRIZZLE   76  69  78 W5        30.00R
HUTCHINSON     CLOUDY    74  72  93 N3        30.00R
$$
MNZ037-044-045-052-053-260500-
   East Central Minnesota

CITY           SKY/WX    TMP DP  RH WIND       PRES   REMARKS
PRINCETON      DRIZZLE   73  72  94 W5        29.98R
MORA           DRIZZLE   68  63  83 W6        29.99R
CAMBRIDGE      CLOUDY    77  66  69 SW6       29.95R
RUSH CITY      LGT RAIN  74  71  88 W3        29.95R
MOOSE LAKE     CLOUDY    72  68  88 SW8       29.95R
HINCKLEY       LGT RAIN  72  68  88 W9G18     29.95S
CLOQUET        CLOUDY    68  66  94 CALM      29.95R
MCGREGOR       MOCLDY    70  68  94 S5        29.97R
$$
MNZ071>073-080-081-089-090-097-098-260500-
   Southwest Minnesota

CITY           SKY/WX    TMP DP  RH WIND       PRES   REMARKS
MONTEVIDEO     CLOUDY    73  63  68 CALM      29.98R
GRANITE FALLS  CLOUDY    73  68  86 W5        29.98R
CANBY          LGT RAIN  78  64  61 SW10      29.96F
MARSHALL       LGT RAIN  73  69  87 SW12      29.97R
REDWOOD FALLS  LGT RAIN  74  70  87 SE7       29.97F
OLIVIA         CLOUDY    72  68  88 CALM      29.96F
PIPESTONE      LGT RAIN  75  72  88 CALM      30.02R
WINDOM         CLOUDY    77  73  88 NW3       30.01R
WORTHINGTON    CLOUDY    75  74  96 NW5       30.03R
JACKSON        CLOUDY    79  72  78 CALM      30.01R
TRACY          LGT RAIN  74  73  95 SW6       29.99S
SLAYTON        RAIN      71  69  96 W3        30.02S
$$
MNZ065>067-074>077-082>085-091>093-260500-
   South Central Minnesota

CITY           SKY/WX    TMP DP  RH WIND       PRES   REMARKS
MANKATO        CLOUDY    77  74  90 S3        29.98R
NEW ULM        CLOUDY    75  73  94 CALM      29.98R
ST JAMES         N/A     77  73  88 SW5       29.98R
FAIRMONT       CLOUDY    78  74  87 S8        29.99S
GLENCOE        CLOUDY    76  76 100 W6        29.99R
FARIBAULT      CLOUDY    75  72  88 S7        29.96F
OWATONNA       CLOUDY    77  72  83 S13       29.98R
WASECA         CLOUDY    77  72  83 S8        29.99R
ALBERT LEA     MOCLDY    77  70  78 S10G17    29.99R
$$
MNZ078>079-086>088-094>096-260500-
   Southeast Minnesota

CITY           SKY/WX    TMP DP  RH WIND       PRES   REMARKS
ROCHESTER      CLOUDY    73  70  90 S15       30.00F
RED WING       CLOUDY    79  68  69 SW7       29.93R
STANTON        CLOUDY    76  71  84 S10       29.94S
DODGE CENTER   CLOUDY    73  68  83 S14G20    29.99R
WINONA         CLOUDY    73  66  78 S3        29.97F
AUSTIN         CLOUDY    73  70  88 S9        30.00S
PRESTON        CLOUDY    73  67  81 S13G18    30.01F
$$
ABBREVIATIONS USED IN REMARKS
   TC - TEMPERATURES IN CELSIUS
  WCI - WIND CHILL INDEX
   HX - HEAT INDEX
  VSB - VISIBILITY
$$



USA.gov is the U.S. government's official web portal to all federal, state and local government web resources and services.